DW7764 Weather Reports


Display with metric or nautical units.
time (UTC)temp
F
wind
direction
speed
MPH
gust
MPH
rain 1hr
in
rain 24hr
in
rain mn
in
humidity
%
barometer
mb
20260510021532 51 288 0.0 0.0 0.00 0.50 0.00 100 1017.6
20260510020028 50 288 0.0 0.0 0.00 0.50 0.00 100 1017.4
20260510014528 50 288 0.0 0.0 0.00 0.50 0.00 99 1017.4
20260510013026 51 288 0.0 0.0 0.00 0.50 0.00 100 1017.2
20260510011533 51 288 0.0 0.0 0.00 0.50 0.00 100 1017.2
20260510010033 51 288 0.0 0.0 0.00 0.50 0.00 100 1017.3
20260510004518 52 288 0.0 0.0 0.00 0.50 0.00 100 1017.4
20260510003017 52 288 0.0 1.0 0.00 0.50 0.00 100 1017.6
20260510001515 52 288 0.0 0.0 0.00 0.50 0.00 99 1017.7
20260510000012 53 288 0.0 0.0 0.00 0.50 0.00 100 1018.1
20260509234510 53 288 0.0 0.0 0.00 0.50 0.00 100 1018.3
20260509233007 54 288 0.0 0.0 0.00 0.50 0.00 100 1018.2
20260509231504 55 288 0.0 1.0 0.00 0.50 0.00 99 1018.3
20260509230003 55 288 0.0 1.0 0.00 0.50 0.00 100 1018.3
20260509224502 55 288 0.0 2.0 0.00 0.50 0.00 99 1018.3
20260509223101 56 288 0.0 1.0 0.00 0.50 0.00 99 1018.3
20260509221612 56 288 0.0 2.0 0.00 0.50 0.00 99 1018.3
20260509220106 56 288 0.0 0.0 0.00 0.50 0.00 99 1018.3
20260509214557 56 288 0.0 2.0 0.00 0.50 0.50 99 1018.3
20260509213057 55 288 0.0 0.0 0.00 0.50 0.50 99 1018.3
20260509211556 55 288 0.0 0.0 0.00 0.50 0.50 99 1018.2
20260509210100 56 288 0.0 2.0 0.00 0.50 0.50 100 1018.1
20260509204600 55 288 0.0 2.0 0.00 0.50 0.50 99 1018.0
20260509203058 55 134 0.0 0.0 0.00 0.50 0.50 100 1017.8
20260509201554 56 134 0.0 0.0 0.00 0.50 0.50 99 1017.6
20260509200059 56 134 0.0 0.0 0.00 0.50 0.50 99 1017.2
20260509194552 56 134 0.0 0.0 0.00 0.50 0.50 99 1017.1
20260509193101 56 134 0.0 0.0 0.00 0.50 0.50 99 1016.9
20260509191610 56 134 0.0 0.0 0.00 0.50 0.50 99 1016.7
20260509190105 56 134 0.0 0.0 0.01 0.50 0.50 99 1016.4
20260509184550 56 134 0.0 0.0 0.01 0.50 0.50 99 1016.0
20260509183050 56 134 0.0 1.0 0.01 0.50 0.50 99 1015.7
20260509181549 56 212 1.0 3.0 0.01 0.50 0.50 99 1015.5
20260509180050 56 338 0.0 1.0 0.02 0.50 0.50 99 1015.3
20260509174548 56 337 0.0 0.0 0.07 0.50 0.50 99 1014.9
20260509173056 56 340 0.0 2.0 0.14 0.50 0.50 99 1014.9
20260509171559 56 305 0.0 4.0 0.20 0.50 0.50 99 1014.9
20260509170046 56 322 1.0 3.0 0.20 0.47 0.47 99 1015.5
20260509164550 56 134 0.0 1.0 0.19 0.43 0.43 99 1016.3
20260509163051 57 134 0.0 2.0 0.17 0.35 0.35 99 1017.0
20260509161544 57 134 0.0 0.0 0.14 0.28 0.28 99 1017.5
20260509160044 57 134 0.0 0.0 0.13 0.27 0.27 99 1017.8
20260509154544 57 245 0.0 4.0 0.13 0.24 0.24 99 1017.9
20260509153044 57 121 0.0 7.0 0.11 0.17 0.17 99 1017.8
20260509151541 57 297 0.0 1.0 0.12 0.15 0.15 99 1016.7
20260509150040 57 327 1.0 4.0 0.11 0.13 0.13 99 1014.9
20260509144546 57 105 0.0 5.0 0.11 0.11 0.11 98 1015.1
20260509143038 57 219 0.0 3.0 0.06 0.06 0.06 98 1015.7
20260509141539 58 121 0.0 6.0 0.03 0.03 0.03 97 1016.7
20260509140036 60 155 1.0 5.0 0.02 0.02 0.02 91 1017.2
20260509134548 63 141 1.0 6.0 0.00 0.00 0.00 77 1017.4
20260509133035 64 110 0.0 6.0 0.00 0.00 0.00 72 1017.4
20260509131551 64 112 0.0 3.0 0.00 0.00 0.00 72 1017.1
20260509130043 65 191 0.0 4.0 0.00 0.00 0.00 70 1016.6
20260509124539 65 115 0.0 3.0 0.00 0.00 0.00 70 1016.3
20260509123031 64 222 1.0 7.0 0.00 0.00 0.00 72 1016.4
20260509121529 64 115 0.0 7.0 0.00 0.00 0.00 75 1017.2
20260509120023 64 155 1.0 8.0 0.00 0.00 0.00 78 1017.6
20260509114523 65 110 1.0 7.0 0.00 0.00 0.00 73 1018.3
20260509113022 65 136 3.0 11.0 0.00 0.00 0.00 68 1018.2
20260509111520 65 103 5.0 10.0 0.00 0.00 0.00 72 1018.4
20260509110024 64 77 3.0 9.0 0.00 0.00 0.00 79 1018.2
20260509104518 64 60 2.0 8.0 0.00 0.00 0.00 82 1018.2
20260509103020 65 138 2.0 6.0 0.00 0.00 0.00 77 1018.4
20260509101521 66 204 0.0 6.0 0.00 0.00 0.00 77 1018.3
20260509100019 65 134 0.0 5.0 0.00 0.00 0.00 76 1018.3
20260509094517 66 139 1.0 5.0 0.00 0.00 0.00 76 1018.2
20260509093021 66 149 0.0 5.0 0.00 0.00 0.00 76 1018.0
20260509091513 65 340 1.0 3.0 0.00 0.00 0.00 78 1018.0
20260509090011 63 27 2.0 5.0 0.00 0.00 0.00 80 1017.7
20260509084513 64 263 0.0 4.0 0.00 0.00 0.00 79 1017.9
20260509083010 64 330 1.0 4.0 0.00 0.00 0.00 78 1017.9
20260509081509 64 153 1.0 4.0 0.00 0.00 0.00 79 1017.6
20260509080004 63 262 0.0 2.0 0.00 0.00 0.00 79 1017.7
20260509074616 63 150 0.0 2.0 0.00 0.00 0.00 81 1017.8
20260509073058 62 190 0.0 3.0 0.00 0.00 0.00 83 1018.0
20260509071600 61 229 0.0 3.0 0.00 0.00 0.00 85 1018.3
20260509064552 60 308 0.0 2.0 0.00 0.00 0.00 86 1018.4
20260509063048 60 186 0.0 2.0 0.00 0.00 0.00 86 1018.6
20260509061550 59 281 1.0 3.0 0.00 0.00 0.00 85 1018.7
20260509060045 59 292 0.0 2.0 0.00 0.00 0.00 86 1018.8
20260509054601 58 293 0.0 1.0 0.00 0.00 0.00 87 1018.6
20260509053135 58 292 0.0 2.0 0.00 0.00 0.00 88 1018.5
20260509051547 57 293 0.0 1.0 0.00 0.00 0.00 91 1018.6
20260509050045 57 293 0.0 0.0 0.00 0.00 0.00 92 1018.8
20260509044537 57 292 0.0 0.0 0.00 0.00 0.00 91 1018.5
20260509043037 57 292 0.0 0.0 0.00 0.00 0.00 90 1018.7
20260509041535 57 292 0.0 0.0 0.00 0.00 0.00 89 1018.8
20260509040034 57 292 0.0 0.0 0.00 0.00 0.00 90 1018.7
20260509034533 58 293 0.0 0.0 0.00 0.00 0.00 89 1018.8
20260509033032 58 292 0.0 1.0 0.00 0.00 0.00 89 1018.8
20260509031532 58 293 0.0 0.0 0.00 0.00 0.00 89 1019.0
20260509030035 57 292 0.0 0.0 0.00 0.00 0.00 89 1018.9
20260509024532 57 292 0.0 0.0 0.00 0.00 0.00 89 1018.9
20260509023040 57 292 0.0 0.0 0.00 0.00 0.00 89 1019.0